Powrót do katalogu

DELTA 1 DEB

AktywnySSO
NORAD 42078·DEBRIS·🇺🇸 United States

Wystrzelony Dec 15, 1968 z Vandenberg Space Force Base

Loading…

Następne Przeloty (najbliższe 24 godziny)

TLE

ŚwieżeSource: Space-Track

Epoka: Sep 13, 2026, 02:22 UTC

1 42078U 68114E   26256.09907658 -.00000005  00000-0  24916-3 0  9997
2 42078 101.5204 212.5724 0029099  95.9878 264.4511 12.50061929234191

Śledź DELTA 1 DEB w czasie rzeczywistym z AllMySat

Download on the App Store